Regional Weather Roundup
Issued by NWS Charleston, WV

Home | Current Version | Previous Version | Graphics & Text | Print | Product List | Glossary On
Versions: 1 2 3 4 5 6 7 8 9 10 11 12 13 14 15 16 17 18 19 20 21 22 23 24 25 26 27 28 29 30 31 32 33 34 35 36 37 38 39 40 41 42 43 44 45 46 47 48 49 50
000
ASUS41 KRLX 260510
RWRRLX
West Virginia Regional Weather Roundup
National Weather Service Charleston WV
1200 AM EST FRI DEC 26 2014

Note: "fair" indicates few or no clouds below 12,000 feet with no
significant weather and/or obstructions to visibility.

WVZ003-260600-
Northern Panhandle of West Virginia

CITY           SKY/WX    TMP DP  RH WIND       PRES   REMARKS
WHEELING       CLOUDY    37  28  70 SW7       30.20F
$$

WVZ009-260600-
Northwest West Virginia

CITY           SKY/WX    TMP DP  RH WIND       PRES   REMARKS
PARKERSBURG    CLEAR     35  28  75 CALM      30.24F
$$

WVZ006-260600-
Western West Virginia

CITY           SKY/WX    TMP DP  RH WIND       PRES   REMARKS
HUNTINGTON     CLEAR     30  28  92 CALM      30.22S
$$

WVZ015-260600-
West Central West Virginia

CITY           SKY/WX    TMP DP  RH WIND       PRES   REMARKS
CHARLESTON     CLEAR     29  28  96 SE3       30.22F
$$

WVZ022-031-260600-
North Central West Virginia

CITY           SKY/WX    TMP DP  RH WIND       PRES   REMARKS
CLARKSBURG     PTCLDY    36  29  75 SW6       30.23F
MORGANTOWN     CLOUDY    39  27  62 S5        30.23F
$$

WVZ025-035-042-045-260600-
Southern West Virginia

CITY           SKY/WX    TMP DP  RH WIND       PRES   REMARKS
BECKLEY        CLEAR     29  26  89 S7        30.20S
LOGAN            N/A     34  32  93 CALM      30.21S
BLUEFIELD      CLEAR     34  28  79 CALM      30.21R
LEWISBURG      CLEAR     28  26  93 SW3       30.21S
$$

WVZ047-260600-
Northern Mountains of West Virginia

CITY           SKY/WX    TMP DP  RH WIND       PRES   REMARKS
ELKINS         PTCLDY    30  28  92 CALM      30.22F
$$

WVZ052-260600-
Eastern Panhandle of West Virginia

CITY           SKY/WX    TMP DP  RH WIND       PRES   REMARKS
MARTINSBURG    CLEAR     38  27  64 SW3       30.22F
PETERSBURG     PTCLDY    28  26  94 CALM      30.22F
$$



USA.gov is the U.S. government's official web portal to all federal, state and local government web resources and services.